Location: Fontevrault
(47.1823°N, 0.0493°E)
Time: 18:11:59
(UTC+00:00)

Cosmos 1725 Rocket - Pass Details

Date: 27 October 2021
Orbit: 961 x 991 km, 82.9° (Epoch: 27 November)

Event Time Altitude Azimuth Distance (km) Brightness Sun altitude
Rises 05:14:56 0° 360° (N) 3,659 7.0 -14.2°
Reaches altitude 10° 05:18:07 10° 16° (NNE) 2,708 6.5 -13.7°
Maximum altitude 05:22:46 22° 65° (ENE) 1,988 6.4 -12.9°
Drops below altitude 10° 05:27:24 10° 114° (ESE) 2,701 7.6 -12.1°
Sets 05:30:32 0° 129° (SE) 3,646 8.0 -11.6°
